Zurück zum Katalog

POEM

AktivWissenschaftVLEO
NORAD 52939·PAYLOAD·🇮🇳 India

Gestartet Jun 30, 2022 von Satish Dhawan Space Centre

Loading…

Nächste Überflüge (nächste 24 Stunden)

TLE

AlterndSource: Space-Track

Epoche: Sep 13, 2026, 01:41 UTC

1 52939U 22072E   26256.07072241  .00006327  00000-0  20718-3 0  9994
2 52939   9.9513 122.1105 0022054  63.4383 296.8091 15.24953690232948

Verfolge POEM in Echtzeit mit AllMySat

Download on the App Store